Simultaneous Nadir Overpasses (SNOs) Predictions

Prediction of SNOs between GOES-14 and AQUA Satellite Orbit:

Table of predicted SNOs for the next 14.0 days since TLE Epoch: 5/18/2024
Index Date Time (GOES-14) GOES-14 Lat,Lon AQUA Lat,Lon Distance(km) Time Diff (sec)
1 05/18/2024 21:07:15 -0.10,-108.63 0.80,-104.50 470.96 80
2 05/19/2024 09:24:45 0.08,-108.65 0.25,-109.37 83.21 80
3 05/21/2024 09:11:01 0.08,-108.64 -0.63,-105.37 372.24 80
4 05/21/2024 21:28:40 -0.06,-108.62 -0.39,-110.29 189.62 80
5 05/23/2024 21:14:53 -0.06,-108.61 0.44,-106.26 266.35 80
6 05/24/2024 09:32:23 0.04,-108.63 0.56,-111.15 286.63 80
7 05/26/2024 09:18:34 0.04,-108.61 -0.27,-107.11 169.48 80
8 05/26/2024 21:36:12 -0.02,-108.57 -0.74,-112.03 393.18 80
9 05/28/2024 21:22:21 -0.03,-108.55 0.09,-107.99 63.98 80
10 05/29/2024 09:39:50 0.00,-108.58 0.91,-112.87 487.64 80
11 05/31/2024 09:23:17 0.02,-108.56 0.07,-108.82 29.50 80
